UAE384 VTBS-VHHH

Flight info

Callsign UAE384
Flight time 2h 6m
Altitude 39000
Route SELKA1E SELKA A1 SANOT Y15 GUROK A202 VILAO/K0874F390 A202 ASSAD/K0874S1190 A202 SAMAS/K0682S0630 A202 SIKOU/N0469F390 V571 CANTO
Aircraft A388/J-SADE2E3FGHIJ3J4J5M1RWXY/LB1D1

Departure

Time 2026-05-06 05:35
Airport Suvarnabhumi Airport (VTBS)

Arrival

Time 2026-05-06 07:41
Airport Hong Kong International Airport (VHHH)
Time Latitude Longitude Altitude Speed Heading
2026-05-06 04:37 13.68128 100.74820 22 ft 0 kts 14°
2026-05-06 05:21 13.68111 100.74816 21 ft 3 kts 10°
2026-05-06 05:21 13.68091 100.74813 21 ft 3 kts
2026-05-06 05:21 13.68071 100.74814 21 ft 3 kts 352°
2026-05-06 05:22 13.68053 100.74819 22 ft 3 kts 336°
2026-05-06 05:22 13.68038 100.74828 22 ft 3 kts 315°
2026-05-06 05:22 13.68030 100.74841 21 ft 3 kts 288°
2026-05-06 05:22 13.68028 100.74845 22 ft 3 kts 284°
2026-05-06 05:25 13.68032 100.74832 21 ft 0 kts 284°
2026-05-06 05:25 13.68040 100.74798 21 ft 9 kts 284°
2026-05-06 05:26 13.68061 100.74715 18 ft 15 kts 284°
2026-05-06 05:26 13.68089 100.74600 20 ft 18 kts 284°
2026-05-06 05:26 13.68122 100.74469 18 ft 20 kts 285°
2026-05-06 05:26 13.68158 100.74325 21 ft 22 kts 284°
2026-05-06 05:27 13.68194 100.74182 19 ft 14 kts 284°
2026-05-06 05:27 13.68214 100.74103 22 ft 9 kts 287°
2026-05-06 05:27 13.68262 100.74061 18 ft 11 kts 359°
2026-05-06 05:27 13.68356 100.74082 21 ft 17 kts 14°
2026-05-06 05:28 13.68488 100.74116 18 ft 22 kts 14°
2026-05-06 05:28 13.68644 100.74157 21 ft 24 kts 14°
2026-05-06 05:28 13.68758 100.74187 19 ft 11 kts 14°
2026-05-06 05:28 13.68819 100.74185 21 ft 8 kts 307°
2026-05-06 05:29 13.68854 100.74130 20 ft 10 kts 332°
2026-05-06 05:29 13.68937 100.74133 19 ft 16 kts 14°
2026-05-06 05:29 13.69058 100.74165 20 ft 20 kts 14°
2026-05-06 05:29 13.69205 100.74204 20 ft 23 kts 14°
2026-05-06 05:30 13.69365 100.74245 19 ft 22 kts 14°
2026-05-06 05:30 13.69522 100.74287 19 ft 25 kts 14°
2026-05-06 05:30 13.69695 100.74332 21 ft 27 kts 14°
2026-05-06 05:30 13.69844 100.74372 19 ft 18 kts 14°
2026-05-06 05:31 13.69978 100.74407 21 ft 21 kts 14°
2026-05-06 05:31 13.70127 100.74445 22 ft 19 kts 14°
2026-05-06 05:31 13.70247 100.74477 21 ft 15 kts 15°
2026-05-06 05:31 13.70297 100.74482 21 ft 8 kts 341°
2026-05-06 05:32 13.70336 100.74433 22 ft 11 kts 286°
2026-05-06 05:32 13.70341 100.74351 21 ft 11 kts 256°
2026-05-06 05:32 13.70304 100.74303 23 ft 7 kts 201°
2026-05-06 05:32 13.70293 100.74300 20 ft 0 kts 193°
2026-05-06 05:34 13.70290 100.74299 20 ft 2 kts 193°
2026-05-06 05:34 13.70114 100.74253 23 ft 62 kts 194°
2026-05-06 05:34 13.69441 100.74076 16 ft 132 kts 194°
2026-05-06 05:34 13.68409 100.73812 131 ft 165 kts 193°
2026-05-06 05:35 13.67286 100.73535 672 ft 167 kts 193°
2026-05-06 05:35 13.66507 100.73404 1006 ft 169 kts 183°
2026-05-06 05:35 13.65321 100.73253 1484 ft 173 kts 189°
2026-05-06 05:35 13.64160 100.72990 2003 ft 173 kts 193°
2026-05-06 05:36 13.62946 100.72800 2527 ft 177 kts 173°
2026-05-06 05:36 13.61814 100.73246 3104 ft 176 kts 139°
2026-05-06 05:36 13.61126 100.74308 3465 ft 188 kts 101°
2026-05-06 05:36 13.61176 100.75641 3862 ft 192 kts 77°
2026-05-06 05:37 13.61575 100.76973 4340 ft 192 kts 71°
2026-05-06 05:37 13.62062 100.78247 4845 ft 192 kts 69°
2026-05-06 05:37 13.62548 100.79528 5235 ft 197 kts 72°
2026-05-06 05:37 13.62955 100.80870 5708 ft 196 kts 75°
2026-05-06 05:38 13.63316 100.82226 6170 ft 200 kts 76°
2026-05-06 05:38 13.63697 100.83664 6314 ft 217 kts 75°
2026-05-06 05:38 13.64115 100.85207 6407 ft 233 kts 75°
2026-05-06 05:38 13.64581 100.86897 6669 ft 256 kts 75°
2026-05-06 05:39 13.65093 100.88740 6998 ft 277 kts 75°
2026-05-06 05:39 13.65627 100.90659 7736 ft 280 kts 75°
2026-05-06 05:39 13.66163 100.92582 8480 ft 285 kts 75°
2026-05-06 05:39 13.66710 100.94547 9245 ft 288 kts 75°
2026-05-06 05:40 13.67262 100.96536 9979 ft 292 kts 75°
2026-05-06 05:40 13.67832 100.98588 10345 ft 309 kts 74°
2026-05-06 05:40 13.68441 101.00784 10533 ft 329 kts 75°
2026-05-06 05:40 13.69082 101.03102 10808 ft 344 kts 74°
2026-05-06 05:41 13.69734 101.05453 11410 ft 349 kts 74°
2026-05-06 05:41 13.70412 101.07896 12095 ft 351 kts 74°
2026-05-06 05:41 13.71129 101.10303 12714 ft 356 kts 69°
2026-05-06 05:41 13.72221 101.12601 13367 ft 360 kts 59°
2026-05-06 05:42 13.73700 101.14690 13985 ft 363 kts 50°
2026-05-06 05:42 13.75347 101.16650 14545 ft 367 kts 50°
2026-05-06 05:42 13.76999 101.18663 15135 ft 370 kts 50°
2026-05-06 05:42 13.78658 101.20701 15726 ft 372 kts 50°
2026-05-06 05:43 13.80330 101.22757 16262 ft 377 kts 50°
2026-05-06 05:43 13.82018 101.24829 16842 ft 379 kts 50°
2026-05-06 05:43 13.83720 101.26916 17414 ft 383 kts 50°
2026-05-06 05:43 13.85430 101.29013 17949 ft 386 kts 50°
2026-05-06 05:44 13.87173 101.31149 18460 ft 389 kts 50°
2026-05-06 05:44 13.88920 101.33291 18903 ft 393 kts 50°
2026-05-06 05:44 13.90676 101.35444 19380 ft 395 kts 50°
2026-05-06 05:44 13.92453 101.37624 19812 ft 398 kts 50°
2026-05-06 05:45 13.94238 101.39814 20254 ft 401 kts 50°
2026-05-06 05:45 13.96039 101.42024 20698 ft 405 kts 50°
2026-05-06 05:45 13.97855 101.44253 21127 ft 408 kts 50°
2026-05-06 05:45 13.99680 101.46494 21579 ft 410 kts 50°
2026-05-06 05:46 14.01520 101.48755 22004 ft 413 kts 50°
2026-05-06 05:46 14.03372 101.51030 22428 ft 416 kts 50°
2026-05-06 05:46 14.05212 101.53291 22843 ft 419 kts 50°
2026-05-06 05:46 14.07090 101.55600 23246 ft 422 kts 50°
2026-05-06 05:47 14.08977 101.57920 23648 ft 424 kts 50°
2026-05-06 05:47 14.10878 101.60259 24012 ft 427 kts 50°
2026-05-06 05:47 14.12785 101.62604 24351 ft 429 kts 50°
2026-05-06 05:47 14.14712 101.64976 24705 ft 431 kts 50°
2026-05-06 05:48 14.16643 101.67353 25043 ft 434 kts 50°
2026-05-06 05:48 14.18584 101.69744 25361 ft 437 kts 50°
2026-05-06 05:48 14.20540 101.72153 25730 ft 439 kts 50°
2026-05-06 05:48 14.22504 101.74573 26086 ft 441 kts 50°
2026-05-06 05:49 14.24479 101.77007 26454 ft 443 kts 50°
2026-05-06 05:49 14.26459 101.79448 26821 ft 446 kts 50°
2026-05-06 05:49 14.28460 101.81916 27191 ft 449 kts 50°
2026-05-06 05:49 14.30465 101.84389 27580 ft 451 kts 50°
2026-05-06 05:50 14.32388 101.86958 27951 ft 454 kts 56°
2026-05-06 05:50 14.34007 101.89760 28377 ft 457 kts 63°
2026-05-06 05:50 14.35312 101.92758 28776 ft 460 kts 69°
2026-05-06 05:50 14.36361 101.95881 29209 ft 463 kts 71°
2026-05-06 05:51 14.37426 101.99023 29639 ft 466 kts 70°
2026-05-06 05:51 14.38510 102.02187 30082 ft 469 kts 70°
2026-05-06 05:51 14.39601 102.05371 30469 ft 472 kts 70°
2026-05-06 05:51 14.40698 102.08580 30844 ft 476 kts 70°
2026-05-06 05:52 14.41796 102.11801 31277 ft 478 kts 70°
2026-05-06 05:52 14.42903 102.15054 31676 ft 482 kts 70°
2026-05-06 05:52 14.44015 102.18322 32085 ft 485 kts 70°
2026-05-06 05:52 14.45135 102.21619 32449 ft 488 kts 70°
2026-05-06 05:53 14.46258 102.24926 32890 ft 490 kts 70°
2026-05-06 05:53 14.47393 102.28269 33245 ft 494 kts 70°
2026-05-06 05:53 14.48529 102.31617 33689 ft 496 kts 70°
2026-05-06 05:53 14.49674 102.34993 34019 ft 500 kts 70°
2026-05-06 05:54 14.50824 102.38384 34408 ft 502 kts 70°
2026-05-06 05:54 14.51980 102.41798 34752 ft 505 kts 70°
2026-05-06 05:54 14.53139 102.45220 35228 ft 504 kts 70°
2026-05-06 05:54 14.54294 102.48633 35755 ft 503 kts 70°
2026-05-06 05:55 14.55444 102.52035 36287 ft 501 kts 70°
2026-05-06 05:55 14.56592 102.55430 36769 ft 501 kts 70°
2026-05-06 05:55 14.57745 102.58843 36905 ft 503 kts 70°
2026-05-06 05:55 14.58879 102.62203 36912 ft 501 kts 70°
2026-05-06 05:56 14.61182 102.69027 36896 ft 505 kts 70°
2026-05-06 05:56 14.63489 102.75871 36900 ft 505 kts 70°
2026-05-06 05:57 14.65789 102.82705 36901 ft 502 kts 70°
2026-05-06 05:57 14.68078 102.89519 36893 ft 502 kts 70°
2026-05-06 05:58 14.70363 102.96328 36886 ft 501 kts 70°
2026-05-06 05:58 14.72646 103.03139 36885 ft 501 kts 70°
2026-05-06 05:59 14.74925 103.09943 36882 ft 501 kts 70°
2026-05-06 05:59 14.77200 103.16745 36880 ft 501 kts 70°
2026-05-06 06:00 14.79472 103.23541 36880 ft 501 kts 70°
2026-05-06 06:00 14.81742 103.30341 36881 ft 501 kts 70°
2026-05-06 06:01 14.84024 103.37145 36881 ft 501 kts 69°
2026-05-06 06:01 14.87084 103.43596 36882 ft 500 kts 57°
2026-05-06 06:02 14.91225 103.49353 36884 ft 499 kts 48°
2026-05-06 06:02 14.95742 103.54790 36878 ft 499 kts 49°
2026-05-06 06:03 15.00252 103.60262 36879 ft 500 kts 49°
2026-05-06 06:03 15.04770 103.65737 36882 ft 500 kts 49°
2026-05-06 06:04 15.09285 103.71208 36886 ft 500 kts 49°
2026-05-06 06:04 15.14046 103.76445 36887 ft 500 kts 40°
2026-05-06 06:05 15.19737 103.80461 36885 ft 499 kts 27°
2026-05-06 06:05 15.26088 103.83350 36885 ft 499 kts 22°
2026-05-06 06:06 15.32476 103.86163 36888 ft 499 kts 22°
2026-05-06 06:06 15.38874 103.88980 36890 ft 500 kts 22°
2026-05-06 06:07 15.45277 103.91794 36893 ft 500 kts 22°
2026-05-06 06:07 15.51676 103.94608 36894 ft 500 kts 22°
2026-05-06 06:08 15.58088 103.97429 36893 ft 501 kts 22°
2026-05-06 06:08 15.64462 104.00235 36897 ft 501 kts 22°
2026-05-06 06:09 15.70882 104.03063 36895 ft 501 kts 22°
2026-05-06 06:09 15.77305 104.05894 36895 ft 501 kts 22°
2026-05-06 06:10 15.83725 104.08726 36898 ft 501 kts 22°
2026-05-06 06:10 15.90145 104.11560 36891 ft 502 kts 22°
2026-05-06 06:11 15.96577 104.14401 36895 ft 502 kts 22°
2026-05-06 06:11 16.02909 104.17481 36897 ft 503 kts 30°
2026-05-06 06:12 16.08521 104.21784 36892 ft 505 kts 42°
2026-05-06 06:12 16.13333 104.27095 36900 ft 505 kts 47°
2026-05-06 06:13 16.18068 104.32484 36904 ft 505 kts 47°
2026-05-06 06:13 16.22804 104.37884 36893 ft 505 kts 47°
2026-05-06 06:14 16.27531 104.43290 36898 ft 505 kts 47°
2026-05-06 06:14 16.32222 104.48727 36900 ft 506 kts 47°
2026-05-06 06:15 16.36923 104.54200 36905 ft 506 kts 47°
2026-05-06 06:15 16.41620 104.59662 36910 ft 506 kts 47°
2026-05-06 06:16 16.46284 104.65087 36913 ft 506 kts 47°
2026-05-06 06:16 16.50979 104.70552 36915 ft 506 kts 47°
2026-05-06 06:17 16.55635 104.76070 36919 ft 507 kts 51°
2026-05-06 06:17 16.59602 104.82154 36920 ft 507 kts 57°
2026-05-06 06:18 16.63418 104.88342 36919 ft 507 kts 56°
2026-05-06 06:18 16.67240 104.94530 36912 ft 507 kts 56°
2026-05-06 06:19 16.71049 105.00713 36900 ft 507 kts 56°
2026-05-06 06:19 16.74854 105.06898 36897 ft 506 kts 56°
2026-05-06 06:20 16.78018 105.12047 36893 ft 506 kts 56°
2026-05-06 06:20 16.82434 105.19238 36893 ft 506 kts 56°
2026-05-06 06:21 16.85620 105.24429 36874 ft 507 kts 56°
2026-05-06 06:21 16.89419 105.30635 36885 ft 507 kts 56°
2026-05-06 06:22 16.93211 105.36839 36883 ft 507 kts 56°
2026-05-06 06:22 16.97007 105.43053 36884 ft 507 kts 56°
2026-05-06 06:23 17.00802 105.49272 36879 ft 508 kts 56°
2026-05-06 06:23 17.04598 105.55497 36886 ft 508 kts 56°
2026-05-06 06:24 17.08365 105.61680 36883 ft 508 kts 56°
2026-05-06 06:24 17.12156 105.67908 36888 ft 507 kts 56°
2026-05-06 06:25 17.15970 105.74179 36879 ft 508 kts 56°
2026-05-06 06:26 17.21630 105.83498 36886 ft 508 kts 56°
2026-05-06 06:26 17.25439 105.89776 36885 ft 508 kts 56°
2026-05-06 06:27 17.29230 105.96030 36897 ft 509 kts 56°
2026-05-06 06:27 17.32995 106.02246 36902 ft 509 kts 56°
2026-05-06 06:28 17.36784 106.08507 36898 ft 509 kts 56°
2026-05-06 06:28 17.40611 106.14739 36901 ft 509 kts 55°
2026-05-06 06:29 17.44456 106.20956 36888 ft 509 kts 55°
2026-05-06 06:29 17.48297 106.27189 36885 ft 509 kts 55°
2026-05-06 06:30 17.52134 106.33425 36883 ft 509 kts 55°
2026-05-06 06:30 17.55969 106.39667 36883 ft 509 kts 55°
2026-05-06 06:31 17.59800 106.45907 36878 ft 509 kts 55°
2026-05-06 06:31 17.63628 106.52147 36876 ft 509 kts 55°
2026-05-06 06:32 17.67431 106.58352 36870 ft 509 kts 55°
2026-05-06 06:32 17.71246 106.64596 36867 ft 508 kts 55°
2026-05-06 06:33 17.75052 106.70845 36864 ft 508 kts 55°
2026-05-06 06:33 17.78853 106.77091 36862 ft 507 kts 55°
2026-05-06 06:34 17.82652 106.83336 36861 ft 508 kts 55°
2026-05-06 06:34 17.86454 106.89592 36863 ft 508 kts 55°
2026-05-06 06:35 17.90256 106.95845 36866 ft 508 kts 55°
2026-05-06 06:35 17.94076 107.02092 36866 ft 508 kts 55°
2026-05-06 06:36 17.97893 107.08342 36864 ft 509 kts 55°
2026-05-06 06:36 18.01709 107.14599 36866 ft 509 kts 55°
2026-05-06 06:37 18.05526 107.20865 36871 ft 509 kts 55°
2026-05-06 06:37 18.09336 107.27130 36869 ft 509 kts 55°
2026-05-06 06:38 18.13148 107.33411 36865 ft 509 kts 55°
2026-05-06 06:38 18.16953 107.39685 36867 ft 509 kts 55°
2026-05-06 06:39 18.20758 107.45966 36865 ft 509 kts 56°
2026-05-06 06:39 18.24533 107.52203 36871 ft 509 kts 56°
2026-05-06 06:40 18.28335 107.58491 36873 ft 509 kts 56°
2026-05-06 06:40 18.32136 107.64782 36876 ft 509 kts 56°
2026-05-06 06:41 18.36253 107.70818 36874 ft 506 kts 47°
2026-05-06 06:41 18.40768 107.76509 36870 ft 507 kts 48°
2026-05-06 06:42 18.45264 107.82229 36870 ft 507 kts 48°
2026-05-06 06:42 18.49767 107.87958 36915 ft 510 kts 48°
2026-05-06 06:43 18.54290 107.93714 36973 ft 507 kts 48°
2026-05-06 06:43 18.58775 107.99427 36978 ft 506 kts 48°
2026-05-06 06:44 18.63269 108.05154 36970 ft 507 kts 48°
2026-05-06 06:44 18.67766 108.10892 36971 ft 507 kts 48°
2026-05-06 06:45 18.72262 108.16633 36970 ft 507 kts 48°
2026-05-06 06:45 18.76751 108.22371 36972 ft 507 kts 48°
2026-05-06 06:46 18.81240 108.28113 36971 ft 507 kts 48°
2026-05-06 06:46 18.85729 108.33861 36972 ft 507 kts 48°
2026-05-06 06:47 18.90214 108.39609 36954 ft 507 kts 48°
2026-05-06 06:47 18.94702 108.45365 36966 ft 507 kts 48°
2026-05-06 06:48 18.99185 108.51122 36981 ft 507 kts 48°
2026-05-06 06:48 19.03670 108.56887 36982 ft 507 kts 48°
2026-05-06 06:49 19.08150 108.62649 36986 ft 507 kts 48°
2026-05-06 06:49 19.12637 108.68427 36982 ft 508 kts 48°
2026-05-06 06:50 19.17122 108.74207 36964 ft 508 kts 48°
2026-05-06 06:50 19.21612 108.79999 36964 ft 509 kts 49°
2026-05-06 06:51 19.26096 108.85787 36966 ft 509 kts 49°
2026-05-06 06:51 19.30584 108.91587 36965 ft 509 kts 49°
2026-05-06 06:52 19.35052 108.97366 36963 ft 509 kts 49°
2026-05-06 06:52 19.39510 109.03137 36986 ft 509 kts 49°
2026-05-06 06:53 19.44022 109.08984 36998 ft 509 kts 49°
2026-05-06 06:53 19.48479 109.14764 36995 ft 510 kts 49°
2026-05-06 06:54 19.52965 109.20592 36999 ft 509 kts 49°
2026-05-06 06:54 19.57415 109.26437 36997 ft 509 kts 49°
2026-05-06 06:55 19.61863 109.32295 36999 ft 509 kts 49°
2026-05-06 06:55 19.66304 109.38141 36993 ft 509 kts 49°
2026-05-06 06:56 19.70750 109.43999 36970 ft 509 kts 49°
2026-05-06 06:56 19.75193 109.49859 36982 ft 509 kts 49°
2026-05-06 06:57 19.79630 109.55716 36970 ft 509 kts 49°
2026-05-06 06:57 19.84070 109.61583 36969 ft 509 kts 49°
2026-05-06 06:58 19.88506 109.67452 36969 ft 509 kts 49°
2026-05-06 06:58 19.92938 109.73321 36969 ft 509 kts 49°
2026-05-06 06:59 19.97370 109.79195 36968 ft 509 kts 49°
2026-05-06 06:59 20.01799 109.85072 36963 ft 510 kts 49°
2026-05-06 07:00 20.06229 109.90956 36964 ft 510 kts 49°
2026-05-06 07:00 20.10665 109.96853 36968 ft 510 kts 49°
2026-05-06 07:01 20.15096 110.02750 36967 ft 510 kts 49°
2026-05-06 07:01 20.19523 110.08646 36971 ft 510 kts 49°
2026-05-06 07:02 20.23952 110.14552 36975 ft 510 kts 49°
2026-05-06 07:02 20.28378 110.20460 36979 ft 511 kts 49°
2026-05-06 07:03 20.32831 110.26370 36979 ft 511 kts 48°
2026-05-06 07:03 20.37328 110.32224 36980 ft 511 kts 48°
2026-05-06 07:04 20.41063 110.37096 36984 ft 511 kts 48°
2026-05-06 07:04 20.45554 110.42970 36988 ft 511 kts 48°
2026-05-06 07:05 20.49674 110.49165 36992 ft 514 kts 57°
2026-05-06 07:05 20.52738 110.56061 36992 ft 518 kts 68°
2026-05-06 07:06 20.55167 110.63317 36997 ft 518 kts 68°
2026-05-06 07:06 20.57623 110.70547 36996 ft 518 kts 68°
2026-05-06 07:07 20.60065 110.77785 36998 ft 518 kts 68°
2026-05-06 07:07 20.62499 110.85026 37007 ft 518 kts 68°
2026-05-06 07:08 20.64927 110.92265 37001 ft 518 kts 68°
2026-05-06 07:08 20.67370 110.99484 36999 ft 518 kts 68°
2026-05-06 07:09 20.69809 111.06687 36998 ft 518 kts 68°
2026-05-06 07:09 20.72249 111.13918 36998 ft 518 kts 68°
2026-05-06 07:10 20.74688 111.21158 36999 ft 517 kts 68°
2026-05-06 07:10 20.77119 111.28389 37003 ft 517 kts 68°
2026-05-06 07:11 20.79551 111.35629 37002 ft 517 kts 68°
2026-05-06 07:11 20.81979 111.42873 37001 ft 517 kts 68°
2026-05-06 07:12 20.84405 111.50118 37007 ft 517 kts 68°
2026-05-06 07:12 20.86840 111.57343 36894 ft 515 kts 68°
2026-05-06 07:13 20.89287 111.64565 36894 ft 518 kts 68°
2026-05-06 07:13 20.91732 111.71811 36898 ft 518 kts 68°
2026-05-06 07:14 20.94170 111.79051 36917 ft 518 kts 68°
2026-05-06 07:14 20.96588 111.86243 36918 ft 517 kts 68°
2026-05-06 07:15 20.99021 111.93493 36905 ft 517 kts 68°
2026-05-06 07:15 21.01446 112.00729 36900 ft 517 kts 68°
2026-05-06 07:16 21.03871 112.07976 36908 ft 517 kts 68°
2026-05-06 07:16 21.06293 112.15225 36911 ft 517 kts 68°
2026-05-06 07:17 21.08709 112.22470 36910 ft 517 kts 68°
2026-05-06 07:17 21.11124 112.29719 36912 ft 517 kts 68°
2026-05-06 07:18 21.13528 112.36953 36910 ft 516 kts 68°
2026-05-06 07:18 21.15935 112.44206 36891 ft 515 kts 68°
2026-05-06 07:18 21.17130 112.47813 36673 ft 511 kts 68°
2026-05-06 07:19 21.18313 112.51387 36423 ft 510 kts 68°
2026-05-06 07:19 21.19483 112.54919 36098 ft 510 kts 69°
2026-05-06 07:19 21.20669 112.58508 35390 ft 512 kts 68°
2026-05-06 07:19 21.21879 112.62170 34306 ft 518 kts 68°
2026-05-06 07:20 21.23065 112.65758 33633 ft 516 kts 69°
2026-05-06 07:20 21.24255 112.69365 33129 ft 509 kts 69°
2026-05-06 07:20 21.25426 112.72921 32535 ft 504 kts 69°
2026-05-06 07:20 21.26589 112.76453 31702 ft 505 kts 69°
2026-05-06 07:21 21.27757 112.80001 31012 ft 503 kts 69°
2026-05-06 07:21 21.28915 112.83521 30614 ft 495 kts 69°
2026-05-06 07:21 21.30050 112.86977 30088 ft 489 kts 69°
2026-05-06 07:21 21.31185 112.90433 29135 ft 493 kts 70°
2026-05-06 07:22 21.32319 112.93889 28509 ft 488 kts 70°
2026-05-06 07:22 21.33435 112.97292 28181 ft 478 kts 70°
2026-05-06 07:22 21.34521 113.00609 27576 ft 473 kts 70°
2026-05-06 07:22 21.35616 113.03951 26699 ft 476 kts 70°
2026-05-06 07:23 21.36707 113.07285 26156 ft 471 kts 70°
2026-05-06 07:23 21.37779 113.10564 25779 ft 461 kts 70°
2026-05-06 07:23 21.38836 113.13804 25103 ft 460 kts 70°
2026-05-06 07:23 21.39897 113.17053 24381 ft 461 kts 70°
2026-05-06 07:24 21.40951 113.20283 23956 ft 454 kts 70°
2026-05-06 07:24 21.41983 113.23449 23304 ft 452 kts 70°
2026-05-06 07:24 21.43035 113.26672 22439 ft 454 kts 70°
2026-05-06 07:24 21.44070 113.29846 21854 ft 445 kts 70°
2026-05-06 07:25 21.45073 113.32930 21562 ft 432 kts 70°
2026-05-06 07:25 21.46057 113.35962 20901 ft 430 kts 70°
2026-05-06 07:25 21.47045 113.39006 20119 ft 433 kts 70°
2026-05-06 07:25 21.48030 113.42039 19680 ft 426 kts 70°
2026-05-06 07:26 21.48995 113.45014 19202 ft 419 kts 70°
2026-05-06 07:26 21.49955 113.47976 18423 ft 423 kts 71°
2026-05-06 07:26 21.50917 113.50941 17890 ft 418 kts 70°
2026-05-06 07:26 21.51861 113.53857 17420 ft 410 kts 70°
2026-05-06 07:27 21.52911 113.56677 16863 ft 404 kts 62°
2026-05-06 07:27 21.54387 113.59172 16266 ft 399 kts 51°
2026-05-06 07:27 21.56280 113.61355 15504 ft 400 kts 41°
2026-05-06 07:27 21.58274 113.63414 15111 ft 391 kts 43°
2026-05-06 07:28 21.60191 113.65448 14662 ft 385 kts 43°
2026-05-06 07:28 21.62090 113.67475 13922 ft 387 kts 43°
2026-05-06 07:28 21.65849 113.71478 13028 ft 374 kts 42°
2026-05-06 07:29 21.67743 113.73372 12390 ft 372 kts 40°
2026-05-06 07:29 21.69665 113.75216 11917 ft 367 kts 40°
2026-05-06 07:29 21.71552 113.77025 11496 ft 362 kts 40°
2026-05-06 07:29 21.73418 113.78827 11011 ft 359 kts 40°
2026-05-06 07:30 21.75255 113.80613 10930 ft 355 kts 40°
2026-05-06 07:30 21.77092 113.82405 10873 ft 358 kts 40°
2026-05-06 07:30 21.78931 113.84203 10616 ft 357 kts 41°
2026-05-06 07:30 21.80762 113.85995 10214 ft 355 kts 41°
2026-05-06 07:31 21.82595 113.87765 9797 ft 353 kts 37°
2026-05-06 07:31 21.84716 113.88998 9273 ft 342 kts 13°
2026-05-06 07:31 21.87017 113.89266 8808 ft 325 kts 350°
2026-05-06 07:31 21.89115 113.88582 8377 ft 309 kts 330°
2026-05-06 07:32 21.90983 113.87535 7936 ft 300 kts 330°
2026-05-06 07:32 21.92823 113.86532 7530 ft 293 kts 331°
2026-05-06 07:32 21.94643 113.85579 7220 ft 289 kts 332°
2026-05-06 07:32 21.96450 113.84660 6911 ft 286 kts 332°
2026-05-06 07:33 21.98251 113.83757 6604 ft 285 kts 333°
2026-05-06 07:33 22.00047 113.82861 6292 ft 284 kts 333°
2026-05-06 07:33 22.01834 113.81971 5985 ft 283 kts 333°
2026-05-06 07:33 22.03614 113.81085 5667 ft 281 kts 333°
2026-05-06 07:34 22.05396 113.80198 5350 ft 282 kts 333°
2026-05-06 07:34 22.07167 113.79316 5037 ft 280 kts 333°
2026-05-06 07:34 22.08930 113.78438 4731 ft 279 kts 333°
2026-05-06 07:34 22.10689 113.77562 4408 ft 278 kts 333°
2026-05-06 07:35 22.12434 113.76689 4087 ft 275 kts 333°
2026-05-06 07:35 22.14149 113.75833 3858 ft 268 kts 334°
2026-05-06 07:35 22.15831 113.74996 3650 ft 264 kts 334°
2026-05-06 07:35 22.17484 113.74172 3391 ft 257 kts 334°
2026-05-06 07:36 22.19068 113.73384 3286 ft 246 kts 334°
2026-05-06 07:36 22.20600 113.72616 3015 ft 238 kts 335°
2026-05-06 07:36 22.22067 113.71890 2795 ft 226 kts 339°
2026-05-06 07:36 22.23596 113.71697 2521 ft 220 kts 14°
2026-05-06 07:37 22.24921 113.72394 2307 ft 206 kts 42°
2026-05-06 07:37 22.25945 113.73378 2111 ft 191 kts 46°
2026-05-06 07:37 22.26908 113.74360 1959 ft 189 kts 46°
2026-05-06 07:37 22.27843 113.75329 1849 ft 187 kts 54°
2026-05-06 07:38 22.28439 113.76562 1802 ft 185 kts 70°
2026-05-06 07:38 22.28826 113.77822 1739 ft 166 kts 75°
2026-05-06 07:38 22.29189 113.78975 1678 ft 162 kts 74°
2026-05-06 07:38 22.29558 113.80130 1550 ft 162 kts 73°
2026-05-06 07:39 22.29923 113.81268 1340 ft 155 kts 74°
2026-05-06 07:39 22.30266 113.82330 1149 ft 146 kts 74°
2026-05-06 07:39 22.30595 113.83352 999 ft 144 kts 75°
2026-05-06 07:39 22.30912 113.84377 807 ft 143 kts 74°
2026-05-06 07:40 22.31229 113.85368 614 ft 137 kts 73°
2026-05-06 07:40 22.31552 113.86338 429 ft 138 kts 70°
2026-05-06 07:40 22.31863 113.87307 264 ft 136 kts 72°
2026-05-06 07:40 22.32173 113.88271 65 ft 134 kts 72°
2026-05-06 07:41 22.32458 113.89152 37 ft 106 kts 71°
2026-05-06 07:41 22.32654 113.89768 37 ft 70 kts 71°
2026-05-06 07:41 22.32779 113.90154 37 ft 32 kts 71°
2026-05-06 07:41 22.32818 113.90350 38 ft 24 kts 88°
2026-05-06 07:42 22.32804 113.90516 38 ft 21 kts 101°
2026-05-06 07:42 22.32780 113.90662 37 ft 19 kts 98°
2026-05-06 07:42 22.32805 113.90799 37 ft 19 kts 71°
2026-05-06 07:42 22.32849 113.90936 37 ft 19 kts 71°
2026-05-06 07:43 22.32893 113.91072 37 ft 20 kts 71°
2026-05-06 07:43 22.32939 113.91217 37 ft 20 kts 71°
2026-05-06 07:43 22.32985 113.91357 37 ft 20 kts 70°
2026-05-06 07:43 22.33031 113.91500 37 ft 20 kts 71°
2026-05-06 07:44 22.33075 113.91641 37 ft 20 kts 71°
2026-05-06 07:44 22.33120 113.91783 37 ft 20 kts 71°
2026-05-06 07:44 22.33166 113.91925 37 ft 20 kts 71°
2026-05-06 07:44 22.33205 113.92047 37 ft 11 kts 76°
2026-05-06 07:45 22.33192 113.92116 37 ft 11 kts 136°
2026-05-06 07:45 22.33117 113.92152 37 ft 14 kts 161°
2026-05-06 07:45 22.33018 113.92188 37 ft 16 kts 161°
2026-05-06 07:45 22.32904 113.92230 37 ft 18 kts 161°
2026-05-06 07:46 22.32775 113.92278 37 ft 21 kts 161°
2026-05-06 07:46 22.32642 113.92328 37 ft 19 kts 161°
2026-05-06 07:46 22.32527 113.92371 37 ft 16 kts 160°
2026-05-06 07:46 22.32426 113.92409 37 ft 16 kts 161°
2026-05-06 07:47 22.32319 113.92449 37 ft 15 kts 160°
2026-05-06 07:47 22.32255 113.92478 37 ft 6 kts 131°
2026-05-06 07:47 22.32246 113.92516 37 ft 6 kts 82°
2026-05-06 07:47 22.32260 113.92574 37 ft 10 kts 72°
2026-05-06 07:48 22.32269 113.92629 37 ft 5 kts 125°
2026-05-06 07:48 22.32226 113.92673 37 ft 13 kts 152°
2026-05-06 07:48 22.32113 113.92717 39 ft 18 kts 161°
2026-05-06 07:48 22.32007 113.92756 39 ft 15 kts 161°
2026-05-06 07:49 22.31907 113.92794 37 ft 15 kts 158°
2026-05-06 07:49 22.31814 113.92836 37 ft 14 kts 158°
2026-05-06 07:49 22.31728 113.92871 37 ft 13 kts 160°
2026-05-06 07:49 22.31647 113.92901 37 ft 12 kts 161°
2026-05-06 07:50 22.31579 113.92925 37 ft 8 kts 176°
2026-05-06 07:50 22.31548 113.92916 37 ft 7 kts 216°
2026-05-06 07:50 22.31508 113.92852 37 ft 9 kts 249°
2026-05-06 07:50 22.31493 113.92804 37 ft 11 kts 262°
2026-05-06 07:51 22.31502 113.92739 37 ft 4 kts 290°
2026-05-06 07:51 22.31511 113.92707 37 ft 4 kts 266°
2026-05-06 07:51 22.31500 113.92682 37 ft 4 kts 222°
2026-05-06 07:51 22.31467 113.92659 37 ft 7 kts 206°
2026-05-06 07:52 22.31448 113.92650 37 ft 0 kts 206°
2026-05-06 07:52 22.31448 113.92649 37 ft 0 kts 206°